Location: Hodgeman County Ambulance
(38.0844°N, 99.8949°W)
Time: 21:35:28
(UTC+00:00)

N. Korean satellite - Pass Details

Date: 29 September 2021
Orbit: 450 x 495 km, 97.3° (Epoch: 21 October)

Event Time Altitude Azimuth Distance (km) Brightness Sun altitude
Rises 11:05:39 0° 29° (NNE) 2,546 10.8 -18.1°
Reaches altitude 10° 11:08:11 10° 48° (NE) 1,670 10.2 -17.6°
Maximum altitude 11:10:47 19° 95° (E) 1,221 9.5 -17.1°
Drops below altitude 10° 11:13:24 10° 141° (SE) 1,675 9.7 -16.6°
Sets 11:15:56 0° 160° (SSE) 2,557 10.4 -16.1°
